Saginaw Browne, MI

12:35 PM EST on November 18, 2017 (GMT -0500)
Saginaw County-Browne

Weather History for KHYX - December, 2013

Change the Weather History Date:

Friday, December 20, 2013

  Actual Average (KMBS) Record (KMBS)
Temperature  
Mean Temperature 31 °F -  
Max Temperature 32 °F 29 °F 47 °F (2015)
Min Temperature 30 °F 17 °F -4 °F (2004)
Degree Days  
Heating Degree Days 34    
Moisture  
Dew Point 32 °F    
Average Humidity 100    
Maximum Humidity 100    
Minimum Humidity 100    
Precipitation  
Precipitation 0.00 in - - ()
Sea Level Pressure  
Sea Level Pressure 29.82 in    
Wind  
Wind Speed 9 mph (NE)    
Max Wind Speed 13 mph    
Max Gust Speed -    
Visibility 5 miles    
Events Snow    
Averages and records for this station are not official NWS values.
T = Trace of Precipitation, MM = Missing Value Source: NWS Daily Summary

Daily Weather History Graph

Daily Weather History Graph

Search for Another Location

Airport or City:

Trip Planner

Search our weather history database for the weather conditions in past years. The results will help you decide how hot, cold, wet, or windy it might be!

Date:

Astronomy

Dec. 20, 2013 Rise Set
Actual Time 8:04 AM EST 5:01 PM EST
Civil Twilight 7:31 AM EST 5:34 PM EST
Nautical Twilight 6:55 AM EST 6:10 PM EST
Astronomical Twilight 6:20 AM EST 6:45 PM EST
Moon 8:26 PM EST (12/20) 9:53 AM EST (12/20)
Length of Visible Light 10h 02m
Length of Day
8h 57m
Waning Gibbous, 90% of the Moon is Illuminated
Dec 20
Waning Gibbous
Dec 25
Last Quarter
Jan 1
New
Jan 7
First Quarter
Jan 15
Full

Hourly Weather History & Observations

Time (EST) Temp. Windchill Dew Point Humidity Pressure Visibility Wind Dir Wind Speed Gust Speed Precip Events Conditions
12:14 AM 30.2 °F 22.6 °F 30.2 °F 100% 29.91 in 1.8 mi East 8.1 mph - N/A   Overcast
12:35 AM 32.0 °F 23.6 °F 32.0 °F 100% 29.91 in 1.8 mi ENE 10.4 mph - N/A   Overcast
12:55 AM 32.0 °F 24.2 °F 32.0 °F 100% 29.90 in 2.5 mi ENE 9.2 mph - N/A   Overcast
1:15 AM 32.0 °F 24.2 °F 32.0 °F 100% 29.90 in 3.0 mi NE 9.2 mph - N/A   Overcast
1:35 AM 32.0 °F 23.6 °F 32.0 °F 100% 29.89 in 3.0 mi NE 10.4 mph - N/A   Overcast
1:55 AM 32.0 °F 23.0 °F 32.0 °F 100% 29.88 in 3.0 mi NE 11.5 mph - N/A   Overcast
2:15 AM 32.0 °F 22.5 °F 32.0 °F 100% 29.88 in 3.0 mi NE 12.7 mph - N/A Snow Light Snow
2:35 AM 32.0 °F 22.5 °F 32.0 °F 100% 29.87 in 5.0 mi NE 12.7 mph - N/A   Overcast
2:55 AM 32.0 °F 23.6 °F 32.0 °F 100% 29.87 in 5.0 mi ENE 10.4 mph - N/A   Overcast
3:15 AM 32.0 °F 23.6 °F 32.0 °F 100% 29.87 in 7.0 mi NE 10.4 mph - N/A   Overcast
3:35 AM 32.0 °F 24.2 °F 32.0 °F 100% 29.86 in 7.0 mi NE 9.2 mph - N/A   Overcast
3:55 AM 32.0 °F 24.2 °F 32.0 °F 100% 29.86 in 5.0 mi NE 9.2 mph - N/A   Overcast
4:15 AM 32.0 °F 24.2 °F 32.0 °F 100% 29.85 in 4.0 mi NE 9.2 mph - N/A   Overcast
4:35 AM 32.0 °F 24.2 °F 32.0 °F 100% 29.83 in 4.0 mi NE 9.2 mph - N/A   Overcast
4:55 AM 32.0 °F 25.6 °F 32.0 °F 100% 29.82 in 4.0 mi NE 6.9 mph - N/A   Overcast
5:15 AM 32.0 °F 26.4 °F 32.0 °F 100% 29.81 in 2.5 mi NNE 5.8 mph - N/A   Overcast
5:34 AM 30.2 °F 21.9 °F 30.2 °F 100% 29.82 in 3.0 mi NNE 9.2 mph - N/A   Overcast
5:55 AM 30.2 °F 22.6 °F 30.2 °F 100% 29.82 in 2.5 mi North 8.1 mph - N/A   Overcast
6:15 AM 32.0 °F 24.8 °F 32.0 °F 100% 29.81 in 2.0 mi NNE 8.1 mph - N/A   Overcast
6:35 AM 32.0 °F 24.2 °F 32.0 °F 100% 29.82 in 2.5 mi NNE 9.2 mph - N/A   Overcast
6:55 AM 32.0 °F 24.2 °F 32.0 °F 100% 29.82 in 2.5 mi NNE 9.2 mph - N/A   Overcast
7:14 AM 32.0 °F 24.2 °F 32.0 °F 100% 29.82 in 3.0 mi NNE 9.2 mph - N/A   Overcast
7:35 AM 32.0 °F 24.2 °F 32.0 °F 100% 29.83 in 3.0 mi NNE 9.2 mph - N/A   Overcast
7:55 AM 32.0 °F 23.6 °F 32.0 °F 100% 29.81 in 2.5 mi NNE 10.4 mph - N/A   Overcast
8:14 AM 32.0 °F 23.6 °F 32.0 °F 100% 29.82 in 2.0 mi NNE 10.4 mph - N/A   Overcast
8:35 AM 32.0 °F 24.2 °F 32.0 °F 100% 29.83 in 1.5 mi NNE 9.2 mph - N/A   Overcast
8:55 AM 32.0 °F 24.8 °F 32.0 °F 100% 29.84 in 1.8 mi NNE 8.1 mph - N/A Snow Light Snow
9:15 AM 32.0 °F 24.8 °F 32.0 °F 100% 29.83 in 3.0 mi NNE 8.1 mph - N/A Snow Light Snow
9:35 AM 32.0 °F 24.8 °F 32.0 °F 100% 29.84 in 3.0 mi NE 8.1 mph - N/A   Overcast
9:55 AM 32.0 °F 25.6 °F 32.0 °F 100% 29.85 in 3.0 mi NE 6.9 mph - N/A   Overcast
10:15 AM 32.0 °F 24.8 °F 32.0 °F 100% 29.84 in 4.0 mi NE 8.1 mph - N/A   Overcast
10:35 AM 32.0 °F 24.8 °F 32.0 °F 100% 29.84 in 5.0 mi NE 8.1 mph - N/A   Overcast
10:55 AM 32.0 °F 25.6 °F 32.0 °F 100% 29.85 in 7.0 mi NE 6.9 mph - N/A   Overcast
11:15 AM 32.0 °F 24.8 °F 32.0 °F 100% 29.84 in 10.0 mi NE 8.1 mph - N/A   Overcast
11:35 AM 32.0 °F 25.6 °F 32.0 °F 100% 29.84 in 7.0 mi NNE 6.9 mph - N/A   Overcast
11:55 AM 32.0 °F 27.5 °F 32.0 °F 100% 29.85 in 3.0 mi NE 4.6 mph - N/A Snow Light Snow
12:15 PM 32.0 °F 26.4 °F 32.0 °F 100% 29.82 in 5.0 mi NE 5.8 mph - N/A   Overcast
12:35 PM 32.0 °F 24.8 °F 32.0 °F 100% 29.81 in 5.0 mi NE 8.1 mph - N/A   Overcast
12:55 PM 32.0 °F 25.6 °F 32.0 °F 100% 29.81 in 5.0 mi NNE 6.9 mph - N/A   Overcast
1:15 PM 32.0 °F 25.6 °F 32.0 °F 100% 29.80 in 4.0 mi NE 6.9 mph - N/A   Overcast
1:35 PM 32.0 °F 24.2 °F 32.0 °F 100% 29.80 in 7.0 mi NE 9.2 mph - N/A   Overcast
1:55 PM 32.0 °F 24.2 °F 32.0 °F 100% 29.79 in 7.0 mi NE 9.2 mph - N/A   Overcast
2:15 PM 32.0 °F 24.2 °F 32.0 °F 100% 29.79 in 7.0 mi NE 9.2 mph - N/A   Overcast
2:35 PM 32.0 °F 24.2 °F 32.0 °F 100% 29.79 in 7.0 mi NE 9.2 mph - N/A   Overcast
2:55 PM 32.0 °F 24.2 °F 32.0 °F 100% 29.79 in 5.0 mi NE 9.2 mph - N/A   Overcast
3:15 PM 32.0 °F 24.2 °F 32.0 °F 100% 29.79 in 5.0 mi NE 9.2 mph - N/A Snow Light Snow
3:35 PM 32.0 °F 24.2 °F 32.0 °F 100% 29.79 in 3.0 mi NE 9.2 mph - N/A   Overcast
3:55 PM 32.0 °F 24.8 °F 32.0 °F 100% 29.80 in 4.0 mi NE 8.1 mph - N/A Snow Light Snow
4:15 PM 32.0 °F 24.8 °F 32.0 °F 100% 29.79 in 7.0 mi NE 8.1 mph - N/A   Overcast
4:35 PM 32.0 °F 24.2 °F 32.0 °F 100% 29.78 in 7.0 mi NE 9.2 mph - N/A   Overcast
4:55 PM 32.0 °F 25.6 °F 32.0 °F 100% 29.79 in 7.0 mi NE 6.9 mph - N/A   Overcast
5:15 PM 32.0 °F 24.2 °F 32.0 °F 100% 29.78 in 7.0 mi NE 9.2 mph - N/A   Overcast
5:35 PM 32.0 °F 25.6 °F 32.0 °F 100% 29.79 in 3.0 mi NNE 6.9 mph - N/A Snow Light Snow
5:55 PM 32.0 °F 26.4 °F 32.0 °F 100% 29.80 in 7.0 mi NE 5.8 mph - N/A   Overcast
6:15 PM 32.0 °F 25.6 °F 32.0 °F 100% 29.79 in 7.0 mi NE 6.9 mph - N/A   Overcast
6:35 PM 32.0 °F 25.6 °F 32.0 °F 100% 29.78 in 10.0 mi NE 6.9 mph - N/A   Overcast
6:55 PM 32.0 °F 27.5 °F 32.0 °F 100% 29.81 in 5.0 mi NE 4.6 mph - N/A Snow Light Snow
7:15 PM 32.0 °F 25.6 °F 32.0 °F 100% 29.79 in 7.0 mi NE 6.9 mph - N/A Snow Light Snow
7:35 PM 32.0 °F 25.6 °F 32.0 °F 100% 29.80 in 7.0 mi NE 6.9 mph - N/A   Overcast
7:55 PM 32.0 °F 27.5 °F 32.0 °F 100% 29.80 in 10.0 mi NE 4.6 mph - N/A   Overcast
8:15 PM 32.0 °F 26.4 °F 32.0 °F 100% 29.79 in 7.0 mi NE 5.8 mph - N/A   Overcast
8:35 PM 32.0 °F 26.4 °F 32.0 °F 100% 29.77 in 7.0 mi NE 5.8 mph - N/A   Overcast
8:55 PM 32.0 °F 26.4 °F 32.0 °F 100% 29.77 in 7.0 mi NE 5.8 mph - N/A   Overcast
9:15 PM 32.0 °F 27.5 °F 32.0 °F 100% 29.77 in 7.0 mi NNE 4.6 mph - N/A   Overcast
9:34 PM 32.0 °F 27.5 °F 32.0 °F 100% 29.78 in 10.0 mi NE 4.6 mph - N/A   Overcast
9:55 PM 32.0 °F 27.5 °F 32.0 °F 100% 29.77 in 10.0 mi NNE 4.6 mph - N/A   Overcast
10:15 PM 32.0 °F 26.4 °F 32.0 °F 100% 29.77 in 10.0 mi NNE 5.8 mph - N/A Snow Light Snow
10:34 PM 32.0 °F 26.4 °F 32.0 °F 100% 29.76 in 10.0 mi NE 5.8 mph - N/A   Overcast
10:55 PM 32.0 °F 26.4 °F 32.0 °F 100% 29.76 in 10.0 mi NE 5.8 mph - N/A   Overcast
11:15 PM 32.0 °F 27.5 °F 32.0 °F 100% 29.76 in 10.0 mi NE 4.6 mph - N/A   Overcast
11:34 PM 32.0 °F 27.5 °F 32.0 °F 100% 29.76 in 10.0 mi NNE 4.6 mph - N/A   Overcast
11:55 PM 32.0 °F 26.4 °F 32.0 °F 100% 29.75 in 10.0 mi NE 5.8 mph - N/A   Overcast